Location: Gunnison Valley Observatory
(38.5087°N, 106.9386°W)
Time: 10:41:24
(UTC-06:00)

Amateur Radio Satellites - All Passes

Search period start: 30 October 2014 10:11
Search period end: 31 October 2014 10:11
Location: Gunnison Valley Observatory, 38.5087°N, 106.9386°W

Satellite Date Start Highest point End Downlink Frequencies (MHz)
Time Altitude Azimuth
KITSAT 1 30 Oct 10:18:53 10:25:29 29° 105° (ESE) 10:32:05 435.175 FM
UKube-1 30 Oct 10:47:48 10:52:11 71° 102° (ESE) 10:56:31 145.840 MHz, 145.915 MHz
ZACube-1 30 Oct 10:54:47 10:58:34 32° 97° (E) 11:02:17 437.345 MHz
ISS 30 Oct 11:00:40 11:03:58 79° 321° (NW) 11:07:19 145.800 FM
Sapphire 30 Oct 11:22:55 11:27:31 27° 52° (NE) 11:32:06 437.095 MHz 1200 baud AX-25 AFSK
SO-50 30 Oct 11:23:06 11:27:21 45° 116° (ESE) 11:31:44 436.795 FM
Oscar 11 30 Oct 11:24:05 11:28:11 44° 287° (WNW) 11:32:16 145.825 FM, Beacon 2401.500 USB
HO-68 30 Oct 11:30:49 11:37:00 32° 297° (WNW) 11:43:10 435.675 MHz FM
FUNcube-1 30 Oct 11:37:40 11:41:52 76° 284° (WNW) 11:46:00 145.950 - 145.970 MHz USB
PCSat 30 Oct 11:44:24 11:49:34 43° 56° (ENE) 11:54:42 145.825 MHz
KITSAT 1 30 Oct 12:12:22 12:20:19 61° 304° (WNW) 12:28:19 435.175 FM
UOSAT-12 30 Oct 12:15:23 12:17:46 14° 108° (ESE) 12:20:11 437.025 FM, 437.400 FM
JAS-1B 30 Oct 12:19:51 12:21:34 11° 57° (ENE) 12:23:17 435.800 - 435.900 CW/SSB
UKube-1 30 Oct 12:26:58 12:27:44 10° 298° (WNW) 12:28:31 145.840 MHz, 145.915 MHz
ZACube-1 30 Oct 12:31:47 12:34:43 19° 293° (WNW) 12:37:38 437.345 MHz
ISS 30 Oct 12:39:04 12:41:07 15° 339° (NNW) 12:43:11 145.800 FM
AO-Echo 30 Oct 12:50:10 12:50:48 10° 59° (ENE) 12:51:27 ?
Oscar 19 30 Oct 12:54:34 12:58:37 24° 66° (ENE) 13:02:39 437.125 CW, 437.150 USB
SO-50 30 Oct 13:04:41 13:08:08 21° 314° (NW) 13:11:40 436.795 FM
Sapphire 30 Oct 13:05:58 13:11:04 42° 249° (WSW) 13:16:07 437.095 MHz 1200 baud AX-25 AFSK
AO-27 30 Oct 13:28:21 13:32:11 21° 65° (ENE) 13:36:01 436.795 MHz FM
PCSat 30 Oct 13:28:22 13:32:41 25° 253° (WSW) 13:36:59 145.825 MHz
Gurwin Techsat 1B 30 Oct 13:39:06 13:41:43 14° 61° (ENE) 13:44:19 435.225 FM
Oscar 16 30 Oct 13:40:09 13:45:15 67° 74° (ENE) 13:50:22 437.025 USB, Beacon 2401.1428
TMSAT-1 30 Oct 13:47:02 13:48:54 12° 60° (ENE) 13:50:45 436.925 FM
UOSAT-12 30 Oct 13:52:48 13:57:22 60° 304° (NW) 14:02:02 437.025 FM, 437.400 FM
JAS-1B 30 Oct 14:05:35 14:11:25 86° 256° (WSW) 14:17:08 435.800 - 435.900 CW/SSB
Uribyol 2 30 Oct 14:11:09 14:16:14 55° 72° (ENE) 14:21:21 436.500 FM
KITSAT 1 30 Oct 14:12:49 14:17:34 16° 327° (NNW) 14:22:21 435.175 FM
ITAMSAT 1 30 Oct 14:18:47 14:23:54 62° 73° (ENE) 14:29:04 435.822 SSB
AO-Echo 30 Oct 14:23:44 14:28:41 88° 77° (ENE) 14:33:51 ?
Oscar 19 30 Oct 14:32:56 14:37:42 39° 262° (W) 14:42:30 437.125 CW, 437.150 USB
Saudisat 1A 30 Oct 14:37:02 14:40:51 28° 50° (NE) 14:44:40 436.775 MHz
AO-7 30 Oct 15:00:04 15:06:29 26° 56° (ENE) 15:12:55 29.400 - 29.500 MHz
AO-27 30 Oct 15:06:21 15:11:20 46° 261° (W) 15:16:22 436.795 MHz FM
Gurwin Techsat 1B 30 Oct 15:15:42 15:21:00 75° 258° (WSW) 15:26:20 435.225 FM
Oscar 16 30 Oct 15:22:41 15:25:02 13° 269° (W) 15:27:23 437.025 USB, Beacon 2401.1428
TMSAT-1 30 Oct 15:22:43 15:28:02 87° 256° (WSW) 15:33:22 436.925 FM
Uribyol 2 30 Oct 15:52:46 15:56:01 17° 268° (W) 15:59:17 436.500 FM
JAS-2 30 Oct 15:54:12 15:55:27 11° 51° (NE) 15:56:43 435.800 - 435.900 CW/SSB, 435.910 FM
ISS 30 Oct 15:54:50 15:56:52 15° 20° (NNE) 15:58:54 145.800 FM
ITAMSAT 1 30 Oct 16:00:55 16:03:47 15° 269° (W) 16:06:40 435.822 SSB
Uosat F 30 Oct 16:14:36 16:19:18 42° 70° (ENE) 16:24:03 435.120 FM
Saudisat 1A 30 Oct 16:16:31 16:20:23 30° 247° (WSW) 16:24:13 436.775 MHz
AO-7 30 Oct 16:50:18 16:58:32 71° 255° (WSW) 17:06:50 29.400 - 29.500 MHz
ISS 30 Oct 17:30:42 17:34:02 76° 38° (NE) 17:37:22 145.800 FM
JAS-2 30 Oct 17:32:47 17:38:52 63° 72° (ENE) 17:45:48 435.800 - 435.900 CW/SSB, 435.910 FM
Uosat F 30 Oct 17:54:31 17:58:14 21° 266° (W) 18:01:59 435.120 FM
Hamsat 30 Oct 18:02:55 18:07:05 71° 76° (ENE) 18:11:15 145.90 MHz
KITSAT 1 30 Oct 18:13:17 18:17:29 15° 30° (NNE) 18:21:41 435.175 FM
OPAL 30 Oct 18:20:09 18:25:02 58° 103° (ESE) 18:29:54 ?
STRAND 1 30 Oct 18:39:04 18:40:32 11° 90° (E) 18:42:01 ?
AO-7 30 Oct 18:50:39 18:52:37 11° 272° (W) 18:54:35 29.400 - 29.500 MHz
AO-40 30 Oct 18:55:10 01:16:15 47° 165° (SSE) 02:59:19 Beacon 2401.320
ISS 30 Oct 19:09:51 19:10:16 10° 233° (SW) 19:10:41 145.800 FM
JAS-2 30 Oct 19:20:11 19:24:35 20° 272° (W) 19:29:21 435.800 - 435.900 CW/SSB, 435.910 FM
SO-67 30 Oct 19:29:18 19:32:44 89° 259° (W) 19:36:11 435.3500 MHz FM
Oscar 10/S400 30 Oct 19:30:17 19:58:20 61° 192° (SSW) 05:23:13 145.825 - 145.975 CW/USB, Beacon 145.810 USB
SO-50 30 Oct 19:55:56 20:00:15 31° 50° (NE) 20:04:35 436.795 FM
OPAL 30 Oct 20:00:28 20:03:26 16° 299° (WNW) 20:06:24 ?
KITSAT 1 30 Oct 20:07:06 20:14:59 53° 55° (NE) 20:22:49 435.175 FM
HO-68 30 Oct 20:10:12 20:16:18 32° 63° (ENE) 20:22:25 435.675 MHz FM
STRAND 1 30 Oct 20:15:06 20:20:16 77° 285° (WNW) 20:25:22 ?
RS-15 30 Oct 20:23:10 20:32:33 34° 106° (ESE) 20:41:49 29.354 - 29.394 USB, Beacon 29.352 USB
Oscar 11 30 Oct 20:45:10 20:45:55 10° 63° (ENE) 20:46:40 145.825 FM, Beacon 2401.500 USB
UOSAT-12 30 Oct 20:45:47 20:47:31 12° 39° (NE) 20:49:15 437.025 FM, 437.400 FM
SO-50 30 Oct 21:36:29 21:40:47 32° 247° (WSW) 21:45:05 436.795 FM
UKube-1 30 Oct 21:41:40 21:45:52 50° 73° (ENE) 21:50:06 145.840 MHz, 145.915 MHz
ZACube-1 30 Oct 21:49:55 21:53:35 25° 69° (ENE) 21:57:12 437.345 MHz
HO-68 30 Oct 21:56:49 22:03:41 49° 260° (W) 22:10:37 435.675 MHz FM
MaSat-1 30 Oct 22:02:18 22:05:51 31° 110° (ESE) 22:09:07 437.345 MHz
KITSAT 1 30 Oct 22:03:02 22:10:01 34° 253° (WSW) 22:16:59 435.175 FM
Oscar 11 30 Oct 22:17:12 22:21:30 69° 259° (WSW) 22:25:49 145.825 FM, Beacon 2401.500 USB
UOSAT-12 30 Oct 22:23:45 22:28:28 77° 58° (ENE) 22:33:06 437.025 FM, 437.400 FM
FUNcube-1 30 Oct 22:31:58 22:36:29 71° 76° (ENE) 22:40:56 145.950 - 145.970 MHz USB
RS-15 30 Oct 22:33:16 22:44:08 64° 306° (NW) 22:55:01 29.354 - 29.394 USB, Beacon 29.352 USB
UKube-1 30 Oct 23:20:17 23:22:19 13° 268° (W) 23:24:22 145.840 MHz, 145.915 MHz
ZACube-1 30 Oct 23:25:53 23:29:50 29° 264° (W) 23:33:44 437.345 MHz
MaSat-1 30 Oct 23:38:38 23:41:16 18° 302° (WNW) 23:43:45 437.345 MHz
UOSAT-12 31 Oct 00:06:59 00:07:55 11° 254° (WSW) 00:08:51 437.025 FM, 437.400 FM
RS-15 31 Oct 00:51:19 00:59:15 22° 335° (NNW) 01:07:17 29.354 - 29.394 USB, Beacon 29.352 USB
JAS-1B 31 Oct 01:49:08 01:55:36 32° 97° (E) 02:03:00 435.800 - 435.900 CW/SSB
Oscar 16 31 Oct 01:53:54 01:58:09 26° 95° (E) 02:02:24 437.025 USB, Beacon 2401.1428
Sapphire 31 Oct 02:03:27 02:08:07 31° 109° (ESE) 02:12:49 437.095 MHz 1200 baud AX-25 AFSK
PCSat 31 Oct 02:24:29 02:29:43 53° 113° (ESE) 02:34:59 145.825 MHz
Uribyol 2 31 Oct 02:26:11 02:30:09 22° 94° (E) 02:34:06 436.500 FM
AO-Echo 31 Oct 02:32:42 02:37:30 33° 96° (E) 02:42:13 ?
ITAMSAT 1 31 Oct 02:33:49 02:38:03 25° 95° (E) 02:42:14 435.822 SSB
Oscar 19 31 Oct 02:45:29 02:50:38 83° 104° (ESE) 02:55:45 437.125 CW, 437.150 USB
RS-15 31 Oct 03:10:54 03:17:37 17° 12° (NNE) 03:24:26 29.354 - 29.394 USB, Beacon 29.352 USB
AO-27 31 Oct 03:20:35 03:25:50 72° 102° (ESE) 03:31:01 436.795 MHz FM
Oscar 16 31 Oct 03:32:56 03:37:31 34° 291° (WNW) 03:42:05 437.025 USB, Beacon 2401.1428
Gurwin Techsat 1B 31 Oct 03:33:30 03:38:40 50° 100° (E) 03:43:48 435.225 FM
JAS-1B 31 Oct 03:39:21 03:46:12 51° 289° (WNW) 03:54:20 435.800 - 435.900 CW/SSB
TMSAT-1 31 Oct 03:40:16 03:45:18 42° 98° (E) 03:50:17 436.925 FM
Sapphire 31 Oct 03:46:30 03:51:25 35° 306° (NW) 03:56:23 437.095 MHz 1200 baud AX-25 AFSK
OPAL 31 Oct 03:59:15 04:00:35 11° 58° (ENE) 04:01:54 ?
Uribyol 2 31 Oct 04:04:54 04:09:46 41° 290° (WNW) 04:14:35 436.500 FM
PCSat 31 Oct 04:09:12 04:13:26 23° 311° (NW) 04:17:41 145.825 MHz
AO-Echo 31 Oct 04:11:35 04:16:07 29° 292° (WNW) 04:20:36 ?
ITAMSAT 1 31 Oct 04:12:49 04:17:36 37° 291° (WNW) 04:22:21 435.822 SSB
Uosat F 31 Oct 04:25:17 04:27:57 14° 92° (E) 04:30:36 435.120 FM
Oscar 19 31 Oct 04:27:31 04:29:14 12° 300° (WNW) 04:30:57 437.125 CW, 437.150 USB
PANSAT 31 Oct 04:46:37 04:48:43 14° 168° (SSE) 04:50:49 not established
JAS-2 31 Oct 04:47:30 04:49:39 11° 84° (E) 04:51:47 435.800 - 435.900 CW/SSB, 435.910 FM
AO-7 31 Oct 04:53:36 05:01:29 44° 100° (E) 05:09:19 29.400 - 29.500 MHz
AO-27 31 Oct 05:02:03 05:04:41 14° 299° (WNW) 05:07:19 436.795 MHz FM
Gurwin Techsat 1B 31 Oct 05:14:27 05:18:14 20° 296° (WNW) 05:22:01 435.225 FM
TMSAT-1 31 Oct 05:20:49 05:24:55 23° 294° (WNW) 05:29:00 436.925 FM
RS-15 31 Oct 05:23:56 05:34:18 41° 45° (NE) 05:45:00 29.354 - 29.394 USB, Beacon 29.352 USB
OPAL 31 Oct 05:33:35 05:38:42 89° 74° (ENE) 05:43:48 ?
Hamsat 31 Oct 05:51:25 05:53:38 14° 92° (E) 05:55:51 145.90 MHz
STRAND 1 31 Oct 05:53:00 05:56:01 16° 63° (ENE) 05:59:03 ?
Uosat F 31 Oct 06:02:07 06:07:06 60° 287° (WNW) 06:12:02 435.120 FM
Saudisat 1A 31 Oct 06:20:44 06:25:06 83° 301° (WNW) 06:29:32 436.775 MHz
PANSAT 31 Oct 06:25:33 06:28:14 18° 181° (S) 06:30:55 not established
JAS-2 31 Oct 06:28:01 06:35:54 70° 101° (ESE) 06:43:26 435.800 - 435.900 CW/SSB, 435.910 FM
AO-7 31 Oct 06:46:33 06:54:07 41° 298° (WNW) 07:01:42 29.400 - 29.500 MHz
Hamsat 31 Oct 07:25:45 07:29:47 44° 287° (WNW) 07:33:49 145.90 MHz
STRAND 1 31 Oct 07:29:35 07:34:39 62° 259° (WSW) 07:39:47 ?
RS-15 31 Oct 07:36:13 07:47:11 62° 247° (WSW) 07:58:39 29.354 - 29.394 USB, Beacon 29.352 USB
MaSat-1 31 Oct 07:48:10 07:50:19 26° 61° (ENE) 07:52:22 437.345 MHz
Saudisat 1A 31 Oct 08:03:59 08:05:22 11° 320° (NW) 08:06:45 436.775 MHz
PANSAT 31 Oct 08:06:03 08:07:43 13° 194° (SSW) 08:09:24 not established
JAS-2 31 Oct 08:14:04 08:20:09 26° 299° (WNW) 08:26:09 435.800 - 435.900 CW/SSB, 435.910 FM
SO-67 31 Oct 08:26:39 08:30:04 59° 284° (WNW) 08:33:27 435.3500 MHz FM
HO-68 31 Oct 09:26:04 09:32:35 36° 98° (E) 09:39:02 435.675 MHz FM
RS-15 31 Oct 09:56:02 09:57:15 10° 265° (W) 09:58:30 29.354 - 29.394 USB, Beacon 29.352 USB
